Regional Weather Roundup
Issued by NWS Tiyan, Guam

Home | Current Version | Previous Version | Text Only | Print | Product List | Glossary On
Versions: 1 2 3 4 5 6 7 8 9 10 11 12 13 14 15 16 17 18 19 20 21 22 23 24 25 26 27
000
ASGM40 PGUM 170912
RWRGUM
WEATHER ROUNDUP FOR THE MARIANAS
NATIONAL WEATHER SERVICE TIYAN GU
700 PM CHST TUE OCT 17 2017

GUZ001>004-171000-
MARIANA ISLANDS-

CITY           SKY/WX    TMP DP  RH WIND       PRES   REMARKS
GUAM AIRPORT   RAIN      77  77 100 S9G22     29.71R FOG
ANDERSEN AFB   NOT AVBL
ROTA AIRPORT   CLOUDY    77  75  94 S5        29.70R
TINIAN AP      MOCLDY    79  77  94 SE10      29.69R
SAIPAN AP      MOCLDY    82  79  89 SE13      29.70R HX  93

$$





USA.gov is the U.S. government's official web portal to all federal, state and local government web resources and services.